Regional Weather Roundup
Issued by NWS Portland, ME

Home | Current Version | Previous Version | Text Only | Print | Product List | Glossary On
Versions: 1 2 3 4 5 6 7 8 9 10 11 12 13 14 15 16 17 18 19 20 21 22 23 24 25 26 27 28 29 30 31 32 33 34 35 36 37 38 39 40 41 42 43 44 45 46 47 48 49 50
000
ASUS41 KGYX 270410
RWRGYX
WEATHER ROUNDUP FOR MAINE AND NEW HAMPSHIRE
NATIONAL WEATHER SERVICE GRAY ME
1100 PM EST THU FEB 26 2015

MEZ002-005-006-010-012-015-018-020-021-024-026-027-029-270500-
MAINE

CITY           SKY/WX    TMP DP  RH WIND       PRES   REMARKS
PORTLAND       CLOUDY    17  -3  41 N3        30.11R
SANFORD        MOCLDY    10  -2  56 CALM      30.09R
BAR HARBOR     CLOUDY    12  -2  52 NW3       30.08R
WISCASSET      CLOUDY    14  -6  40 VRB3      30.12R
ROCKLAND       CLOUDY    14  -6  41 CALM      30.09R
FRYEBURG       CLOUDY    11  -3  53 CALM      30.08R
LEWISTONAUBURN CLOUDY    12  -8  40 N5        30.08R
AUGUSTA        MOCLDY    11  -6  46 N7        30.08R
WATERVILLE     MOCLDY    12  -8  40 N7        30.06R
BANGOR         MOCLDY    11  -5  48 NW12      30.09R WCI  -3
GREENVILLE       N/A      1 -12  54 NW8       29.95R
MILLINOCKET    PTCLDY     7 -11  43 W6        30.07R
HOULTON        PTCLDY     5 -10  50 N6        30.02R
PRESQUE ISLE   MOCLDY     3 -15  43 N10       30.04R WCI -12
FRENCHVILLE    PTCLDY    -2 -10  69 NW9       29.98S
CARIBOU        MOCLDY     0 -10  63 N8        30.03R
$$

NHZ002-005-008-009-011-012-014-270500-
NEW HAMPSHIRE

CITY           SKY/WX    TMP DP  RH WIND       PRES   REMARKS
PORTSMOUTH     CLOUDY    16   4  58 SW1       30.09R
ROCHESTER      CLOUDY    16   1  51 CALM      30.08R
NASHUA         MOCLDY    19  -3  38 CALM      30.11S
MANCHESTER     CLOUDY    18  -2  41 NW9       30.09R
CONCORD        CLOUDY    16  -4  41 NW7       30.09S
LACONIA        CLOUDY    16  -8  35 W5        30.05S
PLYMOUTH       CLOUDY    12  -3  50 W8        30.09R
BERLIN         CLOUDY     6 -10  47 NW3       30.04R
WHITEFIELD     CLOUDY     7  -9  48 CALM      30.07R
JAFFREY        CLOUDY    15  -5  40 N5        30.04R
KEENE          CLOUDY    16  -2  45 N8        30.09S
LEBANON        CLOUDY    13  -5  44 N6        30.11R
MT WASHINGTON  SNOWSHWR  -4  -9  77 NW28        N/A  DRFTSNOWWCI -30
$$

VTZ005-007-008-270500-
VERMONT

CITY           SKY/WX    TMP DP  RH WIND       PRES   REMARKS
ST JOHNSBURY     N/A      6  -8  52 MISG      30.11R
MONTPELIER     CLOUDY     3  -9  57 NW3       30.12R
BURLINGTON     PTCLDY     6 -10  47 N3        30.19R
$$

MAZ007-012-024-CTZ003-RIZ002-NYZ038-NYZ072-270500-
SOUTHERN NEW ENGLAND AND NY

CITY           SKY/WX    TMP DP  RH WIND       PRES   REMARKS
BOSTON         CLOUDY    21   8  57 VRB3      30.12R
WORCESTER      CLOUDY    18  -2  41 N6        30.03S
NANTUCKET      CLOUDY    25  15  66 N13       30.07R WCI  14
PROVIDENCE     CLOUDY    21  12  68 N3        30.11S
HARTFORD       MOCLDY    20   5  52 W3        30.10S
ALBANY         FLURRIES  12  -2  53 N10       30.17R WCI  -1
NEW YORK CITY  MOCLDY    23  11  60 N5        30.14S
$$

ANZ081-ANZ082-ANZ150-NHZ014-MEZ023>029-270500-
COASTAL MARINE OBSERVATIONS

STATION/POSITION TIME  TEMP    WIND        PRES    WAVE
                       AIR SEA DIR/SP/G            HT/PER
                 (UTC) (F)     (DEG/KT/KT) (MB)    (FT/S)
MOUNT DESERT ROC 0400   19                 1017.6R
MATINICUS ROCK   0300   18     360/ 16/ 18 1017.9R
WELLS            0300   17     330/  4/  4 1018.6R
ISLE OF SHOALS   0300   21     360/  9/ 11 1018.4R
JEFFREYS LEDGE   0321      40                N/A     4/11
CASHES LEDGE BUO 0350   22 40              1018.1R   4/10
$$

.............KEY..............
   WCI - WIND CHILL
   TC  - TEMPERATURE IN CELSIUS
   VSB - VISIBILITY IN MILES
   HX  - HEAT INDEX
   FAIR- INDICATES FEW OR NO CLOUDS BELOW 12,000 FT, WITH NO
         SIGNIFICANT WEATHER AND/OR OBSTRUCTIONS TO VISIBILITY.




USA.gov is the U.S. government's official web portal to all federal, state and local government web resources and services.